[[{"header":{"parameterUnit":"m.s-1","parameterCategory":1,"la1":30.2991,"la2":30.254,"lo1":-89.0895,"lo2":-89.0444,"dy":0.0017,"dx":0.0017,"nx":28,"ny":28,"refTime":"2024-07-26T09:00:00:Z","depth":0,"parameterNumber":2,"parameterNumberName":"U-component_of_WINDS"},"data":[0,0,0,0,0,0,0,0,0,0,0,0,0,0,0,0,0,0,0,0,0,0,0,0,0,0,0,0,0,0,0,0,0,0,0,0,0,0,0,0,0,0,0,0,0,0,0,0,0,0,0,0,0,0,0,0,0,0,-3.7823,-3.7823,0,-3.786,-3.786,-3.7861,-3.776,-3.7757,-3.7754,-3.7751,-3.7789,-3.7793,-3.7797,0,0,0,0,0,0,0,0,0,0,0,0,0,-3.7667,-3.767,-3.7823,-3.7823,-3.7824,-3.786,-3.786,-3.7861,-3.776,-3.7757,-3.7753,-3.7749,-3.7788,-3.7792,-3.7797,0,0,0,0,0,0,0,0,0,0,0,0,0,-3.7722,-3.7671,-3.7823,-3.7778,-3.7774,-3.786,-3.786,-3.7861,-3.7761,-3.7756,-3.7752,-3.7747,-3.7786,-3.7792,-3.7798,-3.7928,0,0,-3.7816,-3.7818,0,0,0,0,0,0,0,0,-3.7719,-3.7728,-3.7784,-3.7781,-3.7777,-3.78,-3.7819,-3.7884,-3.7762,-3.7766,-3.775,-3.7745,-3.7797,-3.7801,-3.7819,-3.793,-3.7932,-3.7816,-3.782,-3.7823,-3.7824,0,0,0,0,0,0,0,-3.7716,-3.7726,-3.7838,-3.7785,-3.7781,-3.7756,-3.7759,-3.7831,-3.7807,-3.7766,-3.7758,-3.7764,-3.7794,-3.7813,-3.7819,-3.7932,-3.7816,-3.7822,-3.7825,-3.7827,-3.8152,-3.8157,0,0,0,0,0,0,-3.7717,-3.7723,-3.7836,-3.7839,-3.7736,-3.7763,-3.7766,-3.7798,-3.7806,-3.7803,-3.7768,-3.7759,-3.7805,-3.7812,-3.782,-3.7972,-3.7823,-3.7828,-3.7831,-3.8147,-3.8153,-3.8159,0,0,0,0,0,0,-3.7714,-3.7728,-3.7835,-3.7779,-3.7791,-3.7771,-3.7807,-3.7801,-3.782,-3.7808,-3.7804,-3.7792,-3.7802,-3.7812,-3.7902,-3.7972,-3.7831,-3.7836,-3.8141,-3.8149,-3.8156,-3.8278,0,0,0,0,0,0,-3.771,-3.7728,-3.7777,-3.7781,-3.7794,-3.7916,-3.7812,-3.7805,-3.783,-3.7819,-3.7829,-3.7827,-3.7799,-3.7894,-3.7908,-3.7977,-3.7841,-3.8135,-3.8145,-3.8154,-3.8268,-3.8289,-3.8307,0,0,0,0,0,-3.7705,-3.781,-3.778,-3.7794,-3.7855,-3.7921,-3.7928,-3.7894,-3.7837,-3.7886,-3.7878,-3.7826,-3.7963,-3.7904,-3.7919,-3.7991,-3.813,-3.8142,-3.8153,-3.8259,-3.8285,-3.8307,0,0,0,0,0,0,-3.7815,-3.781,-3.7776,-3.7886,-3.7905,-3.7903,-3.7964,-3.7923,-3.7958,-3.7946,-3.7903,-3.7906,-3.8004,-3.8007,-3.7942,-3.8118,-3.8037,-3.8052,-3.8112,-3.8137,-3.8156,-3.8152,-3.7846,0,0,0,0,0,-3.7852,-3.7906,-3.7898,-3.7996,-3.8007,-3.7985,-3.8012,-3.7984,-3.8002,-3.8009,-3.8008,-3.8027,-3.8074,-3.8106,-3.8149,-3.8269,-3.8269,-3.8326,-3.8346,-3.8362,-3.8375,-3.8438,-3.8463,-3.8196,-3.8196,-3.8196,0,0,-3.7929,-3.7933,-3.7969,-3.8018,-3.8029,-3.8085,-3.7992,-3.8055,-3.8096,-3.8019,-3.8103,-3.8104,-3.8122,-3.8228,-3.8275,-3.8233,-3.8449,-3.8377,-3.839,-3.8394,-3.8452,-3.8477,-3.85,-3.8204,-3.8203,-3.8201,0,0,-3.8097,-3.8107,-3.8188,-3.8201,-3.8219,-3.8203,-3.8224,-3.8229,-3.8226,-3.8311,-3.8253,-3.8302,-3.8385,-3.84,-3.8418,-3.8594,-3.8547,-3.861,-3.8712,-3.8773,-3.8794,-3.8813,-3.8874,-3.8896,-3.8623,-3.8623,-3.8623,0,-3.819,-3.8272,-3.8235,-3.8302,-3.8325,-3.8258,-3.834,-3.8355,-3.8386,-3.8404,-3.8358,-3.8459,-3.8467,-3.8575,-3.8618,-3.8636,-3.8656,-3.8607,-3.8794,-3.8812,-3.8829,-3.8887,-3.891,-3.863,-3.863,-3.8629,-3.8628,0,-3.8385,-3.8443,-3.8507,-3.8538,-3.8569,-3.8644,-3.8618,-3.8653,-3.8624,-3.8614,-3.87,-3.8708,-3.8751,-3.8775,-3.8747,-3.8879,-3.8852,-3.8802,-3.8718,-3.8862,-3.8915,-3.8937,-3.8641,-3.8638,-3.8636,-3.8634,0,0,-3.8622,-3.8632,-3.8656,-3.8669,-3.8685,-3.8729,-3.8801,-3.8842,-3.8873,-3.8898,-3.8956,-3.9028,-3.8981,-3.9002,-3.8976,-3.903,-3.9167,-3.8972,-3.8972,-3.9006,-3.9312,-3.9348,-3.9374,-3.9138,-3.9142,-3.9145,-3.9309,0,-3.8786,-3.8908,-3.8877,-3.8998,-3.9051,-3.8989,-3.9051,-3.9068,-3.9061,-3.9105,-3.9097,-3.9148,-3.9083,-3.9095,-3.9146,-3.914,-3.9228,-3.9128,-3.919,-3.9193,-3.9185,-3.9402,-3.9441,-3.9596,-3.933,-3.9334,-3.9336,0,-3.8993,-3.9025,-3.9152,-3.9158,-3.9179,-3.9236,-3.9271,-3.9315,-3.9332,-3.9323,-3.9348,-3.9311,-3.9382,-3.93,-3.9397,-3.933,-3.9354,-3.9355,-3.9361,-3.9363,-3.9271,-3.9409,-3.9645,-3.9667,-3.9369,-3.9367,-3.9364,0,-3.915,-3.9225,-3.931,-3.9324,-3.9334,-3.9376,-3.9382,-3.9395,-3.9422,-3.9454,-3.9471,-3.9511,-3.9532,-3.9564,-3.9539,-3.9482,-3.964,-3.9556,-3.9633,-3.9634,-3.9667,-3.9664,-3.9908,-3.9687,-3.9687,-3.9686,-3.9686,0,-3.9335,-3.9414,-3.9381,-3.9433,-3.952,-3.9485,-3.9572,-3.9571,-3.9584,-3.9635,-3.9585,-3.9634,-3.9599,-3.9645,-3.9626,-3.9708,-3.9719,-3.9713,-3.9707,-3.9716,-3.9717,-3.9729,-3.9717,-3.9693,-3.9691,-3.969,-3.9689,0,-3.9524,-3.9505,-3.9593,-3.9596,-3.9599,-3.9663,-3.9665,-3.9714,-3.9704,-3.9769,-3.9782,-3.9767,-3.9818,-3.9797,-3.9852,-3.9839,-3.9944,-3.9925,-3.9938,-3.9932,-4.0009,-4.0001,-4.0267,-4.0299,-4.0061,-4.0063,-4.0065,0,-3.9642,-3.9701,-3.9711,-3.9741,-3.9751,-3.9801,-3.9828,-3.9796,-3.9826,-3.9852,-3.9897,-3.9945,-3.9981,-4.0067,-4.006,-4.0102,-4.0082,-4.0172,-4.0087,-4.0095,-4.008,-4.0076,-4.0081,-4.0188,-4.0191,-4.0193,-4.0195,0,-3.9852,-3.984,-3.9881,-3.9919,-3.9953,-3.9981,-4.0005,-4.0033,-4.0003,-4.004,-4.0092,-4.012,-4.0176,-4.0224,-4.0261,-4.0268,-4.0226,-4.0222,-4.0242,-4.025,-4.0254,-4.0251,-3.9981,-4.0215,-4.0213,-4.0212,-4.0211,-4.021,-4.0007,-4.0057,-4.0071,-4.0118,-4.0133,-4.0157,-4.0203,-4.0198,-4.0241,-4.0284,-4.0263,-4.0324,-4.0341,-4.0386,-4.0399,-4.0446,-4.041,-4.0439,-4.0446,-4.0453,-4.0462,-4.025,-4.0453,-4.0452,-4.0452,-4.0451,-4.0451,0,-4.0213,-4.022,-4.0264,-4.0299,-4.0336,-4.0295,-4.032,-4.0353,-4.0407,-4.0426,-4.0463,-4.0523,-4.0569,-4.0567,-4.061,-4.0648,-4.063,-4.066,-4.0655,-4.0657,-4.0493,-4.047,-4.0673,-4.0673,-4.0673,-4.0673,-4.0673,-4.0673,-4.0325,-4.0406,-4.0396,-4.0484,-4.049,-4.0548,-4.0565,-4.0587,-4.0602,-4.0671,-4.0709,-4.0708,-4.0718,-4.0762,-4.0802,-4.08,-4.0817,-4.0854,-4.0845,-4.0691,-4.0669,-4.0648,-4.0626,-4.0859,-4.0859,-4.1005,-4.1006,-4.1007]},{"header":{"parameterUnit":"m.s-1","parameterCategory":1,"la1":30.2991,"la2":30.254,"lo1":-89.0895,"lo2":-89.0444,"dy":0.0017,"dx":0.0017,"nx":28,"ny":28,"refTime":"2024-07-26T09:00:00:Z","depth":0,"parameterNumber":3,"parameterNumberName":"V-component_of_WINDS"},"data":[0,0,0,0,0,0,0,0,0,0,0,0,0,0,0,0,0,0,0,0,0,0,0,0,0,0,0,0,0,0,0,0,0,0,0,0,0,0,0,0,0,0,0,0,0,0,0,0,0,0,0,0,0,0,0,0,0,0,0.4853,0.4853,0,0.4882,0.4883,0.4883,0.4859,0.4857,0.4856,0.4855,0.489,0.4892,0.4894,0,0,0,0,0,0,0,0,0,0,0,0,0,0.478,0.4782,0.4853,0.4853,0.4854,0.4882,0.4883,0.4883,0.4859,0.4857,0.4856,0.4855,0.489,0.4892,0.4894,0,0,0,0,0,0,0,0,0,0,0,0,0,0.4811,0.4782,0.4853,0.4845,0.4844,0.4882,0.4883,0.4883,0.4859,0.4857,0.4856,0.4854,0.4889,0.4892,0.4894,0.4943,0,0,0.4903,0.4904,0,0,0,0,0,0,0,0,0.4809,0.4814,0.4846,0.4845,0.4845,0.4865,0.487,0.4904,0.4859,0.4854,0.4855,0.4854,0.4883,0.4887,0.4896,0.4945,0.4947,0.4903,0.4905,0.4906,0.4907,0,0,0,0,0,0,0,0.4807,0.4812,0.4865,0.4846,0.4846,0.4841,0.4844,0.4876,0.4877,0.4854,0.4852,0.4856,0.4883,0.4893,0.4896,0.4947,0.4903,0.4906,0.4908,0.4909,0.5039,0.5041,0,0,0,0,0,0,0.4805,0.4811,0.4864,0.4866,0.4823,0.4844,0.4847,0.486,0.4877,0.4877,0.4857,0.4855,0.4889,0.4893,0.4898,0.4957,0.4906,0.4909,0.4911,0.5038,0.504,0.5042,0,0,0,0,0,0,0.4804,0.481,0.4863,0.4838,0.4844,0.4847,0.4862,0.4862,0.4872,0.4879,0.4879,0.4867,0.4888,0.4894,0.4932,0.4957,0.491,0.4913,0.5036,0.5038,0.5041,0.5075,0,0,0,0,0,0,0.4802,0.481,0.4827,0.4838,0.4845,0.4895,0.4864,0.4863,0.4876,0.4873,0.4888,0.4889,0.4887,0.4928,0.4935,0.496,0.4915,0.5033,0.5037,0.504,0.5071,0.5078,0.5084,0,0,0,0,0,0.4799,0.4836,0.4828,0.4835,0.4867,0.4897,0.4901,0.4896,0.4878,0.4897,0.4901,0.4889,0.4953,0.4932,0.494,0.4967,0.5032,0.5036,0.504,0.5068,0.5077,0.5084,0,0,0,0,0,0,0.483,0.4838,0.4829,0.487,0.4883,0.4892,0.4915,0.4905,0.4924,0.4921,0.4916,0.492,0.496,0.4967,0.4943,0.5016,0.499,0.4996,0.5009,0.5017,0.5023,0.5021,0.4918,0,0,0,0,0,0.4841,0.4863,0.4869,0.4905,0.4912,0.4913,0.4925,0.4921,0.4934,0.494,0.4948,0.4963,0.4986,0.5002,0.5024,0.5072,0.5076,0.5095,0.5101,0.5106,0.5111,0.5138,0.5147,0.5055,0.5055,0.5055,0,0,0.4865,0.4872,0.4886,0.4912,0.4921,0.4945,0.4917,0.4944,0.4963,0.4945,0.4981,0.4987,0.5004,0.5048,0.5067,0.5055,0.5138,0.5111,0.5115,0.5118,0.5143,0.5152,0.516,0.5057,0.5057,0.5056,0,0,0.4921,0.4928,0.4959,0.4969,0.4983,0.4983,0.4991,0.5002,0.5005,0.5041,0.5028,0.5052,0.5092,0.5105,0.5116,0.5178,0.5168,0.5186,0.5219,0.5246,0.5253,0.5259,0.5282,0.529,0.5191,0.5191,0.5191,0,0.495,0.4984,0.4977,0.5004,0.5017,0.5,0.5032,0.5043,0.5064,0.5074,0.5059,0.511,0.512,0.5167,0.5182,0.5192,0.5201,0.5184,0.5252,0.5258,0.5264,0.5286,0.5295,0.5193,0.5193,0.5193,0.5192,0,0.5019,0.5043,0.5067,0.5086,0.5101,0.5131,0.513,0.5146,0.5141,0.5143,0.5182,0.5193,0.5217,0.5228,0.5223,0.5275,0.5267,0.5252,0.5227,0.5275,0.5296,0.5304,0.5196,0.5195,0.5195,0.5194,0,0,0.5095,0.511,0.5119,0.5128,0.5142,0.5162,0.5192,0.5214,0.5229,0.5245,0.5271,0.5306,0.5292,0.5306,0.5303,0.5326,0.5375,0.5308,0.5309,0.5321,0.5434,0.5445,0.5455,0.5368,0.537,0.5371,0.5433,0,0.5152,0.5202,0.5197,0.5246,0.5269,0.5254,0.528,0.5293,0.5297,0.5318,0.5323,0.5348,0.5328,0.5336,0.5358,0.5364,0.5398,0.536,0.5394,0.5395,0.539,0.5465,0.5477,0.5535,0.5441,0.5442,0.5443,0,0.5226,0.5242,0.5293,0.5304,0.5314,0.5337,0.5358,0.5378,0.5393,0.5394,0.5409,0.5402,0.5435,0.5408,0.5453,0.5427,0.5441,0.5447,0.5449,0.5452,0.5422,0.5471,0.5553,0.5562,0.5455,0.5454,0.5453,0,0.5277,0.5312,0.5347,0.5355,0.5369,0.5386,0.5393,0.5406,0.542,0.5439,0.5449,0.5472,0.5485,0.5504,0.5504,0.5484,0.555,0.5523,0.5553,0.5553,0.5568,0.5567,0.5653,0.5576,0.5576,0.5576,0.5576,0,0.5342,0.5373,0.537,0.5392,0.5428,0.5422,0.5458,0.5463,0.5475,0.5499,0.5488,0.5511,0.5509,0.5533,0.5534,0.5572,0.5577,0.558,0.558,0.5582,0.5581,0.5591,0.5587,0.5578,0.5577,0.5577,0.5577,0,0.5405,0.5404,0.5441,0.5451,0.5454,0.548,0.549,0.5511,0.5514,0.5544,0.5551,0.5555,0.5583,0.5584,0.5617,0.5617,0.5663,0.5659,0.5658,0.5657,0.5687,0.5685,0.5783,0.5796,0.571,0.5711,0.5712,0,0.5447,0.5471,0.5483,0.5497,0.5504,0.5528,0.5542,0.5538,0.5554,0.5572,0.5592,0.5618,0.5639,0.5684,0.5691,0.5716,0.5712,0.5745,0.5716,0.5717,0.5713,0.5712,0.5715,0.5751,0.5752,0.5752,0.5753,0,0.5521,0.5519,0.5539,0.5559,0.5576,0.5592,0.5607,0.562,0.5618,0.5636,0.5663,0.5679,0.5711,0.5738,0.5762,0.5771,0.5763,0.5762,0.577,0.5772,0.5771,0.5773,0.5674,0.576,0.5759,0.5759,0.5758,0.5758,0.5575,0.5596,0.5608,0.5631,0.5641,0.5655,0.5676,0.568,0.5702,0.5727,0.5724,0.5754,0.577,0.5802,0.5813,0.5838,0.5827,0.5839,0.5842,0.5845,0.5849,0.5767,0.5842,0.5842,0.5842,0.5842,0.5842,0,0.565,0.5656,0.5677,0.5698,0.5716,0.5704,0.572,0.5737,0.5763,0.5778,0.5798,0.583,0.5856,0.5865,0.5891,0.5909,0.5906,0.5916,0.5915,0.5918,0.5857,0.5847,0.5918,0.5918,0.5918,0.5918,0.5918,0.5918,0.5691,0.5725,0.5725,0.5765,0.5772,0.5801,0.5811,0.5825,0.5836,0.5871,0.5892,0.5897,0.5911,0.5937,0.5961,0.5963,0.5974,0.5986,0.5986,0.5929,0.5922,0.5914,0.5905,0.5988,0.5988,0.6045,0.6046,0.6046]}]]